Terminal Aerodrome Forecast
Issued by NWS Grand Forks, ND

Home | Current Version | Previous Version | Graphics & Text | Print | Product List | Glossary On
Versions: 1 2 3 4 5 6 7 8 9 10 11 12
000
FTUS43 KFGF 181726
TAFFAR
TAF
KFAR 181726Z 1818/1918 19006KT P6SM FEW250
     FM190900 16006KT 5SM BR SCT060=

USA.gov is the U.S. government's official web portal to all federal, state and local government web resources and services.